Regional Weather Roundup
Issued by NWS

Home | Current Version | Previous Version | Text Only | Print | Product List | Glossary Off
Versions: 1 2 3 4 5 6 7 8 9 10 11 12 13 14 15 16 17 18 19 20 21 22 23 24 25 26 27 28 29 30 31 32 33 34 35 36 37 38 39 40 41 42 43 44 45 46 47 48 49 50

000
ASUS45 KABQ 152001
RWRNM
NEW MEXICO REGIONAL WEATHER ROUNDUP
NATIONAL WEATHER SERVICE ALBUQUERQUE NM
100 PM MST FRI DEC 15 2017

NOTE: "FAIR" MEANS FEW OR NO CLOUDS BELOW 12,000 FEET AGL WITH NO
       SIGNIFICANT WEATHER OR OBSTRUCTIONS TO VISION.

      THIS PRODUCT IS RELEASED AS TWO VERSIONS.  ONE VERSION NEAR
      THE TOP OF THE HOUR CONTAINING PRELIMINARY DATA FROM ALBUQUERQUE
      AND OTHER STATIONS.  A FINAL VERSION WITH ADDITIONAL DATA IS
      ISSUED ABOUT 10 MINUTES AFTER THE HOUR.

NMZ501-503-504-510>518-152100-
NORTHWEST PLATEAU/NORTHCENTRAL MOUNTAINS

CITY           SKY/WX    TMP DP  RH WIND       PRES   REMARKS
FARMINGTON     FAIR      40  17  39 S5        30.25F
LOS ALAMOS     FAIR      39  13  34 NE5       30.23F
SANTA FE       FAIR      44  13  28 N15       30.20F
TAOS           FAIR      42   3  19 W7        30.24F
ANGEL FIRE     FAIR      43  -5  13 W13G18    30.19F

$$
NMZ402-403-502-505>509-152100-
WESTCENTRAL MOUNTAINS/SOUTHWEST MOUNTAINS

CITY           SKY/WX    TMP DP  RH WIND       PRES   REMARKS
GALLUP         FAIR      48   1  14 MISG      30.26F
GRANTS         FAIR      47   5  17 N12G22    30.25F
SILVER CITY    FAIR      45  16  31 SE7       30.26F

$$
NMZ407-409-411-412-152100-
SOUTHERN DESERTS

CITY           SKY/WX    TMP DP  RH WIND       PRES   REMARKS
DEMING         FAIR      49  19  30 E7        30.27F
LAS CRUCES     FAIR      49  20  31 CALM      30.27F
HOLLOMAN AFB   FAIR      50  19  28 SW3       30.29F
ALAMOGORDO     FAIR      46  18  31 SW5       30.28F
T OR C         FAIR      49  18  29 CALM      30.25F

$$
NMZ519>523-152100-
CENTRAL VALLEYS/CENTRAL HIGHLANDS

CITY           SKY/WX    TMP DP  RH WIND       PRES   REMARKS
ALBUQUERQUE    FAIR      43  15  32 SW3       30.24F
DOUBLE EAGLE   SUNNY     43  16  33 VRB5      30.25F
MORIARTY ARPT  FAIR      51  15  24 NW10G16   30.21F
CLINES CORNERS FAIR      46   6  19 NW24G30   30.18F
BELEN          FAIR      46  16  31 CALM      30.25F
SOCORRO        FAIR      44  17  33 CALM      30.26F

$$
NMZ524>526-539-540-152100-
SOUTHCENTRAL MOUNTAINS

CITY           SKY/WX    TMP DP  RH WIND       PRES   REMARKS
RUIDOSO        FAIR      45   9  23 NW12      30.22F

$$
NMZ527>531-152100-
NORTHEAST HIGHLANDS/NORTHEAST PLAINS

CITY           SKY/WX    TMP DP  RH WIND       PRES   REMARKS
LAS VEGAS      FAIR      52  -1  11 S13       30.12F
RATON          FAIR      46  12  25 CALM      30.08F
CLAYTON        FAIR      55   4  12 SW13      30.05F

$$
NMZ532>537-152100-
EASTCENTRAL PLAINS

CITY           SKY/WX    TMP DP  RH WIND       PRES   REMARKS
SANTA ROSA     FAIR      53  17  24 S7        30.12F
TUCUMCARI      FAIR      56  18  22 SW12      30.09F
CANNON AFB     FAIR      50  23  34 SW16      30.17F
CLOVIS AIRPORT FAIR      50  22  33 SW22      30.16F

$$
NMZ028-029-538-152100-
SOUTHEAST PLAINS

CITY           SKY/WX    TMP DP  RH WIND       PRES   REMARKS
ROSWELL        FAIR      53  23  31 S13       30.20F
ARTESIA        FAIR      50  25  37 S15       30.23F
CARLSBAD       FAIR      52  27  38 S15       30.22F
HOBBS          SUNNY     50  23  34 SW12G20   30.22F


$$




USA.gov is the U.S. government's official web portal to all federal, state and local government web resources and services.